Simultaneous Nadir Overpasses (SNOs) Predictions

Prediction of SNOs between METOP-B and TERRA Satellite Orbit:

Table of predicted SNOs for the next 14.0 days since TLE Epoch: 3/14/2015
Index Date (METOP-B) Time (METOP-B) Lat,Lon (METOP-B) SZA (METOP-B ) Date (TERRA) Time (TERRA) Lat,Lon (TERRA) SZA (TERRA ) Distance(km) Time Diff (sec)
1 03/14/2015 11:18:24 81.29, 57.17 86.30 03/14/2015 11:19:08 81.28, 57.31 86.33 2.41 44
2 03/14/2015 12:09:03 -81.30,-134.84 93.64 03/14/2015 12:08:34 -81.30,-134.79 93.65 0.73 29
3 03/17/2015 06:52:48 81.29, 123.80 85.24 03/17/2015 06:53:26 81.29, 123.91 85.27 1.88 38
4 03/17/2015 07:43:28 -81.29, -68.55 94.74 03/17/2015 07:42:53 -81.29, -68.55 94.76 0.76 35
5 03/20/2015 02:27:11 81.29,-169.62 84.18 03/20/2015 02:27:43 81.29,-169.66 84.19 0.59 32
6 03/
